Crookston, MN

8:56 PM CDT on March 28, 2017 (GMT -0500)
Crookston Municipal-Kirkwood

Weather History for KCKN - January, 2014

Change the Weather History Date:

Wednesday, January 1, 2014

  Actual Average Record
Temperature  
Mean Temperature -17 °F -  
Max Temperature -9 °F 14 °F 28 °F (2012)
Min Temperature -25 °F 0 °F -25 °F (2014)
Degree Days  
Heating Degree Days 82    
Moisture  
Dew Point -22 °F    
Average Humidity 73    
Maximum Humidity 84    
Minimum Humidity 65    
Precipitation  
Precipitation 0.00 in - - ()
Sea Level Pressure  
Sea Level Pressure 30.49 in    
Wind  
Wind Speed 2 mph (NE)    
Max Wind Speed 7 mph    
Max Gust Speed -    
Visibility 9 miles    
Events Snow    
Averages and records for this station are not official NWS values.
T = Trace of Precipitation, MM = Missing Value Source: NWS Daily Summary

Daily Weather History Graph

Daily Weather History Graph

Search for Another Location

Airport or City:

Trip Planner

Search our weather history database for the weather conditions in past years. The results will help you decide how hot, cold, wet, or windy it might be!

Date:

Astronomy

Jan. 01, 2014 Rise Set
Actual Time 8:15 AM CST 4:44 PM CST
Civil Twilight 7:39 AM CST 5:20 PM CST
Nautical Twilight 7:00 AM CST 6:00 PM CST
Astronomical Twilight 6:22 AM CST 6:37 PM CST
Moon 8:01 AM CST (1/1) 5:37 PM CST (1/1)
Length of Visible Light 9h 41m
Length of Day
8h 29m
New Moon, 0% of the Moon is Illuminated
Jan 1
New Moon
Jan 7
First Quarter
Jan 15
Full
Jan 23
Last Quarter
Jan 30
New

Hourly Weather History & Observations

Time (CST) Temp. Windchill Dew Point Humidity Pressure Visibility Wind Dir Wind Speed Gust Speed Precip Events Conditions
12:14 AM -18.4 °F - -25.6 °F 70% 30.47 in 10.0 mi Calm Calm - N/A   Clear
12:34 AM -18.4 °F - -25.6 °F 70% 30.46 in 10.0 mi Calm Calm - N/A   Clear
12:55 AM -18.4 °F - -25.6 °F 70% 30.47 in 10.0 mi Calm Calm - N/A   Clear
1:14 AM -18.4 °F - -25.6 °F 70% 30.47 in 10.0 mi Calm Calm - N/A   Clear
1:34 AM -18.4 °F - -25.6 °F 70% 30.46 in 10.0 mi Calm Calm - N/A   Clear
1:55 AM -18.4 °F - -25.6 °F 70% 30.46 in 10.0 mi Calm Calm - N/A   Clear
2:14 AM -18.4 °F - -25.6 °F 70% 30.46 in 10.0 mi Calm Calm - N/A   Clear
2:34 AM -18.4 °F - -25.6 °F 70% 30.46 in 10.0 mi Calm Calm - N/A   Clear
2:55 AM -18.4 °F -28.9 °F -25.6 °F 70% 30.47 in 10.0 mi ENE 3.5 mph - N/A   Clear
3:14 AM -18.4 °F -28.9 °F -23.8 °F 76% 30.47 in 10.0 mi NE 3.5 mph - N/A   Mostly Cloudy
3:34 AM -18.4 °F -28.9 °F -23.8 °F 76% 30.47 in 10.0 mi ENE 3.5 mph - N/A   Scattered Clouds
3:55 AM -16.6 °F -26.8 °F -23.8 °F 70% 30.47 in 10.0 mi ESE 3.5 mph - N/A   Overcast
4:14 AM -18.4 °F -28.9 °F -23.8 °F 76% 30.46 in 10.0 mi East 3.5 mph - N/A   Scattered Clouds
4:35 AM -16.6 °F -29.3 °F -23.8 °F 70% 30.45 in 10.0 mi East 4.6 mph - N/A   Overcast
4:55 AM -16.6 °F -29.3 °F -23.8 °F 70% 30.45 in 10.0 mi East 4.6 mph - N/A   Overcast
5:14 AM -16.6 °F -29.3 °F -23.8 °F 70% 30.45 in 10.0 mi East 4.6 mph - N/A   Overcast
5:35 AM -16.6 °F -29.3 °F -23.8 °F 70% 30.45 in 10.0 mi East 4.6 mph - N/A   Overcast
5:54 AM -16.6 °F -29.3 °F -23.8 °F 70% 30.45 in 10.0 mi ENE 4.6 mph - N/A   Mostly Cloudy
6:14 AM -16.6 °F -26.8 °F -22.0 °F 76% 30.46 in 10.0 mi ENE 3.5 mph - N/A   Mostly Cloudy
6:35 AM -14.8 °F -24.8 °F -22.0 °F 70% 30.46 in 10.0 mi East 3.5 mph - N/A   Mostly Cloudy
6:54 AM -14.8 °F -27.2 °F -22.0 °F 70% 30.46 in 10.0 mi ESE 4.6 mph - N/A   Mostly Cloudy
7:14 AM -14.8 °F - -22.0 °F 70% 30.47 in 4.0 mi Calm Calm - N/A Snow Light Snow
7:35 AM -14.8 °F - -22.0 °F 70% 30.48 in 7.0 mi Calm Calm - N/A Snow Light Snow
7:54 AM -14.8 °F - -20.2 °F 77% 30.48 in 10.0 mi Calm Calm - N/A   Overcast
8:14 AM -14.8 °F - -20.2 °F 77% 30.49 in 10.0 mi Calm Calm - N/A   Overcast
8:35 AM -14.8 °F - -20.2 °F 77% 30.49 in 10.0 mi Calm Calm - N/A   Scattered Clouds
8:54 AM -14.8 °F -24.8 °F -20.2 °F 77% 30.50 in 7.0 mi East 3.5 mph - N/A   Clear
9:14 AM -14.8 °F -24.8 °F -20.2 °F 77% 30.51 in 5.0 mi ESE 3.5 mph - N/A Snow Light Snow
9:35 AM -14.8 °F -24.8 °F -20.2 °F 77% 30.52 in 4.0 mi East 3.5 mph - N/A Snow Light Snow
9:54 AM -14.8 °F -24.8 °F -20.2 °F 77% 30.52 in 3.0 mi East 3.5 mph - N/A Snow Light Snow
10:15 AM -13.0 °F - -20.2 °F 70% 30.52 in 2.0 mi Calm Calm - N/A Snow Light Snow
10:35 AM -13.0 °F -22.7 °F -18.4 °F 77% 30.53 in 10.0 mi NE 3.5 mph - N/A   Mostly Cloudy
10:54 AM -13.0 °F -22.7 °F -18.4 °F 77% 30.53 in 10.0 mi NE 3.5 mph - N/A Snow Light Snow
11:15 AM -11.2 °F -20.6 °F -18.4 °F 70% 30.53 in 10.0 mi NE 3.5 mph - N/A Snow Light Snow
11:35 AM -11.2 °F -20.6 °F -18.4 °F 70% 30.52 in 7.0 mi NE 3.5 mph - N/A   Clear
11:54 AM -11.2 °F -20.6 °F -18.4 °F 70% 30.51 in 7.0 mi ENE 3.5 mph - N/A   Clear
12:15 PM -11.2 °F -20.6 °F -18.4 °F 70% 30.52 in 10.0 mi NE 3.5 mph - N/A   Clear
12:34 PM -11.2 °F -20.6 °F -18.4 °F 70% 30.51 in 10.0 mi NE 3.5 mph - N/A   Clear
12:54 PM -11.2 °F -20.6 °F -18.4 °F 70% 30.51 in 10.0 mi NE 3.5 mph - N/A   Clear
1:14 PM -11.2 °F -20.6 °F -18.4 °F 70% 30.50 in 10.0 mi ENE 3.5 mph - N/A   Clear
1:34 PM -9.4 °F -18.6 °F -18.4 °F 65% 30.49 in 7.0 mi NE 3.5 mph - N/A Snow Light Snow
1:55 PM -9.4 °F -18.6 °F -16.6 °F 71% 30.48 in 10.0 mi ENE 3.5 mph - N/A   Clear
2:14 PM -9.4 °F -20.9 °F -16.6 °F 71% 30.49 in 10.0 mi ENE 4.6 mph - N/A   Clear
2:35 PM -9.4 °F - -16.6 °F 71% 30.49 in 10.0 mi Calm Calm - N/A   Clear
2:55 PM -9.4 °F - -16.6 °F 71% 30.49 in 10.0 mi Calm Calm - N/A   Clear
3:14 PM -9.4 °F - -16.6 °F 71% 30.49 in 10.0 mi Calm Calm - N/A   Clear
3:35 PM -9.4 °F - -16.6 °F 71% 30.49 in 10.0 mi Calm Calm - N/A   Clear
3:55 PM -9.4 °F - -16.6 °F 71% 30.49 in 10.0 mi Calm Calm - N/A   Clear
4:14 PM -11.2 °F -20.6 °F -18.4 °F 70% 30.49 in 10.0 mi North 3.5 mph - N/A   Clear
4:35 PM -14.8 °F -27.2 °F -20.2 °F 77% 30.49 in 10.0 mi North 4.6 mph - N/A   Clear
4:55 PM -14.8 °F -29.1 °F -20.2 °F 77% 30.49 in 10.0 mi North 5.8 mph - N/A   Clear
5:14 PM -16.6 °F -29.3 °F -22.0 °F 76% 30.50 in 10.0 mi NNW 4.6 mph - N/A   Clear
5:35 PM -16.6 °F -31.3 °F -22.0 °F 76% 30.50 in 10.0 mi NNW 5.8 mph - N/A   Clear
5:54 PM -18.4 °F -31.4 °F -23.8 °F 76% 30.51 in 10.0 mi NNW 4.6 mph - N/A   Clear
6:14 PM -16.6 °F -32.9 °F -23.8 °F 70% 30.51 in 10.0 mi North 6.9 mph - N/A   Clear
6:35 PM -18.4 °F -28.9 °F -23.8 °F 76% 30.51 in 10.0 mi North 3.5 mph - N/A   Clear
6:54 PM -16.6 °F - -20.2 °F 84% 30.51 in 10.0 mi Calm Calm - N/A   Clear
7:14 PM -16.6 °F - -23.8 °F 70% 30.51 in 10.0 mi Calm Calm - N/A   Clear
7:35 PM -18.4 °F - -25.6 °F 70% 30.51 in 10.0 mi Calm Calm - N/A   Clear
7:54 PM -16.6 °F -29.3 °F -22.0 °F 76% 30.52 in 10.0 mi NNE 4.6 mph - N/A   Clear
8:14 PM -16.6 °F -29.3 °F -22.0 °F 76% 30.51 in 10.0 mi NE 4.6 mph - N/A   Clear
8:35 PM -16.6 °F -26.8 °F -20.2 °F 84% 30.51 in 10.0 mi NE 3.5 mph - N/A   Clear
8:54 PM -14.8 °F -24.8 °F -20.2 °F 77% 30.50 in 10.0 mi ENE 3.5 mph - N/A   Clear
9:15 PM -18.4 °F - -25.6 °F 70% 30.49 in 10.0 mi Calm Calm - N/A   Clear
9:35 PM -16.6 °F - -22.0 °F 76% 30.50 in 10.0 mi Calm Calm - N/A   Clear
9:54 PM -22.0 °F - -27.4 °F 76% 30.49 in 10.0 mi Calm Calm - N/A   Clear
10:15 PM -22.0 °F - -27.4 °F 76% 30.49 in 10.0 mi Calm Calm - N/A   Clear
10:35 PM -20.2 °F -33.5 °F -25.6 °F 76% 30.49 in 10.0 mi ENE 4.6 mph - N/A   Clear
10:54 PM -18.4 °F - -23.8 °F 76% 30.49 in 10.0 mi Calm Calm - N/A   Clear
11:15 PM -23.8 °F - -29.2 °F 76% 30.49 in 10.0 mi Calm Calm - N/A   Clear
11:34 PM -25.6 °F - -31.0 °F 76% 30.49 in 10.0 mi Calm Calm - N/A   Clear
11:54 PM -23.8 °F - -29.2 °F 76% 30.49 in 10.0 mi Calm Calm - N/A   Clear